www.pogodaiklimat.ru
ПОГОДА в Раутаваара Яла-Луоста
Время
(UTC), дата
01 6.12
02 6.12
03 6.12
04 6.12
05 6.12
06 6.12
07 6.12
08 6.12
09 6.12
10 6.12
11 6.12
12 6.12
13 6.12
14 6.12
15 6.12
16 6.12
17 6.12
18 6.12
19 6.12
20 6.12
21 6.12
22 6.12
23 6.12
00 7.12
01 7.12
02 7.12
03 7.12
04 7.12
05 7.12
06 7.12
07 7.12
08 7.12
09 7.12
10 7.12
11 7.12
12 7.12
13 7.12
14 7.12
15 7.12
16 7.12
17 7.12
18 7.12
19 7.12
20 7.12
21 7.12
22 7.12
23 7.12
00 8.12
01 8.12
02 8.12
03 8.12
04 8.12
05 8.12
06 8.12
07 8.12
08 8.12
09 8.12
10 8.12
11 8.12
12 8.12
13 8.12
14 8.12
15 8.12
16 8.12
17 8.12
18 8.12
19 8.12
20 8.12
21 8.12
22 8.12
23 8.12
00 9.12
01 9.12
02 9.12
03 9.12
04 9.12
05 9.12
06 9.12
07 9.12
08 9.12
09 9.12
10 9.12
11 9.12
12 9.12
13 9.12
14 9.12
15 9.12
16 9.12
17 9.12
18 9.12
19 9.12
20 9.12
21 9.12
22 9.12
23 9.12
00 10.12
01 10.12
02 10.12
03 10.12
04 10.12
05 10.12
07 10.12
08 10.12
09 10.12
10 10.12
11 10.12
12 10.12
13 10.12
14 10.12
15 10.12
16 10.12
17 10.12
19 10.12
20 10.12
21 10.12
22 10.12
23 10.12
00 11.12
01 11.12
02 11.12
03 11.12
04 11.12
05 11.12
06 11.12
07 11.12
08 11.12
09 11.12
10 11.12
11 11.12
12 11.12
13 11.12
14 11.12
15 11.12
16 11.12
17 11.12
19 11.12
20 11.12
21 11.12
22 11.12
23 11.12
00 12.12
01 12.12
02 12.12
03 12.12
04 12.12
05 12.12
06 12.12
07 12.12
08 12.12
09 12.12
10 12.12
11 12.12
12 12.12
13 12.12
14 12.12
15 12.12
16 12.12
17 12.12
18 12.12
19 12.12
20 12.12
21 12.12
22 12.12
23 12.12
00 13.12
01 13.12
Ветер
(напр.,м/с)
Видим. Явления Облачность Т
(С)
Тd
(С)
f
(%)
Тe
(С)
Тes
(С)
Комфортность P
(гПа)
Po
(гПа)
Тmin
(С)
Tmax
(С)
R
(мм)
R24
(мм)
S
(см)
З 3-6
{10}
50 км 10/10 300 м
[]
+2.0 +0.5 90 -2 -2 982.9 962.9
ЮЗ 3-7
{10}
45 км 9/9 300 м
[]
+1.9 0.0 87 -2 -2 982.8 962.8
ЮЗ 3-7
{7}
45 км 9/9 300 м
[]
+1.3 0.0 91 -3 -3 982.9 962.8
ЮЗ 4-7
{7}
40 км 9/9 300 м
[]
+1.6 +0.1 90 -4 -4 983.2 963.2
ЮЗ 4-8
{8}
40 км 9/9 300 м
[]
+1.4 -0.2 89 -4 -4 983.0 963.0
ЮЗ 2-4
{7}
35 км 1/0 300 м
[]
+0.2 -0.7 94 -4 -4 983.5 963.4 +0.2 +2.4 <0.5
Ю 2-3
{5}
21 км ясно -0.9 -1.2 98 -5 -5 984.0 963.8
Ю 1-2
{3}
16 км 6/6 200 м
[]
-0.8 -1.0 99 -3 -3 983.7 963.5
Ю 3-5
{5}
18 км 10/10 100 м
[]
+0.6 +0.2 97 -4 -4 983.8 963.7
Ю 1-2
{6}
13 км 10/10 50 м
[]
+0.7 +0.3 97 -1 -1 983.4 963.3
Ю 2-4
{4}
10 км 10/10 50 м
[]
+0.7 +0.3 97 -3 -3 983.3 963.2
Ю 2-3
{3}
13 км 10/10 50 м
[]
+0.7 +0.4 98 -3 -3 983.0 962.9
Ю 1-2
{3}
700 м туман ?/? +0.7 +0.5 99 -1 -1 983.0 962.9
Ю 1-2
{3}
400 м туман ?/? +0.8 +0.7 99 -1 -1 982.9 962.8
штиль 0-1
{2}
200 м сильная пыльная буря {метель} ?/? +0.8 +0.8 100 -1 -1 983.0 963.0
штиль 0 300 м туман ?/? +0.8 +0.8 100 -1 -1 983.2 963.1
штиль 0-1
{3}
300 м туман ?/? +1.1 +1.1 100 -0 -0 983.8 963.8
ЮЗ 1-2
{2}
700 м пыльная буря {метель} ?/? +1.1 +1.1 100 -1 -1 984.3 964.2 -1.6 +1.2
ЮЗ 2-3
{4}
3200 м в посл. час туман 10/10 50 м
[]
+1.1 +1.0 99 -3 -3 984.6 964.5
ЮЗ 2-4
{5}
10 км дымка 10/10 50 м
[]
+0.8 +0.7 99 -3 -3 985.0 964.8
Ю 2-5
{5}
6000 м дымка 10/0 50 м
[]
+0.5 +0.5 100 -3 -3 985.3 965.2
Ю 3-5
{5}
2300 м дымка ?/? +0.2 +0.2 100 -5 -5 985.7 965.5
ЮЗ 2-4
{4}
1100 м дымка ?/? +0.2 +0.1 99 -4 -4 986.2 966.0
Ю 2-4
{4}
900 м сильная пыльная буря {метель} ?/? +0.1 +0.1 100 -4 -4 986.6 966.4
Ю 2-4
{4}
1500 м слаб. ливневой дождь ?/? +0.2 +0.1 99 -4 -4 986.7 966.5
Ю 3-4
{5}
1500 м дымка ?/? 0.0 0.0 100 -5 -5 987.0 966.8
ЮЗ 3-4
{5}
900 м пыльная буря {ливн. осадки, морось} ?/? 0.0 0.0 100 -5 -5 987.5 967.3
Ю 2-3
{4}
600 м туман ?/? +0.2 +0.2 100 -4 -4 987.7 967.4
ЮЗ 3-5
{6}
50 км в посл. час осадки 9/9 200 м
[]
+0.3 +0.2 99 -5 -5 987.9 967.7
ЮЗ 2-4
{5}
40 км {ливн. осадки, дождь} 10/10 200 м
[]
+0.3 +0.1 99 -4 -4 987.9 967.7 -0.1 +1.1 <0.5
Ю 3-4
{4}
35 км 10/10 100 м
[]
+0.3 -0.1 97 -5 -5 988.3 968.0
Ю 3-6
{6}
35 км 10/10 100 м
[]
+0.2 -0.4 96 -5 -5 988.3 968.1
Ю 3-5
{6}
50 км 10/10 100 м
[]
-0.1 -0.5 97 -5 -5 988.1 967.8
Ю 3-5
{6}
17 км 10/0 50 м
[]
-0.3 -0.5 99 -5 -5 987.6 967.4
Ю 2-4
{6}
4200 м дымка 10/0 50 м
[]
-0.3 -0.5 99 -4 -4 987.0 966.8
ЮВ 1-2
{5}
2000 м переохл. дождь (гололёд) {туман} 10/10 <50 м
[]
-0.1 -0.3 99 -2 -2 985.8 965.6 0.2
штиль 0-1
{2}
1400 м дождь со снегом ?/? -0.1 -0.3 99 -2 -2 985.3 965.1 1
штиль 0-1
{2}
3400 м дождь со снегом 10/10 300 м
[]
+0.1 -0.2 98 -1 -1 984.1 964.0 1
СВ 1-2
{2}
3000 м слаб. дождь со снегом 10/10 300 м
[]
0.0 -0.3 98 -2 -2 982.9 962.7 0.5
В 1-2
{2}
2400 м слаб. дождь 10/10 200 м
[]
+0.1 -0.1 99 -2 -2 981.6 961.5 0.3
СВ 1-2
{3}
2800 м дождь 10/10 100 м
[]
+0.2 -0.2 97 -2 -2 980.8 960.7 0.5
штиль 0-1
{3}
1500 м слаб. дождь 10/10 50 м
[]
+0.1 -0.1 99 -1 -1 980.0 959.9 -0.4 +0.3 0.3
штиль 0
{2}
1300 м сильн. дождь 10/10 50 м
[]
+0.1 0.0 99 -1 -1 979.3 959.3 0.6
штиль 0
{1}
2900 м дождь 10/10 100 м
[]
+0.1 0.0 99 -1 -1 978.6 958.6 0.6
СВ 1-2
{2}
1400 м слаб. дождь со снегом ?/? +0.1 0.0 99 -2 -2 977.9 957.9 1
СВ 1-2
{2}
2900 м дождь со снегом 10/10 200 м
[]
+0.1 0.0 99 -2 -2 977.2 957.2 0.6
штиль 0
{2}
1600 м дождь со снегом ?/? 0.0 -0.1 99 -1 -1 976.8 956.8 0.8
СЗ 1-2
{2}
2200 м слаб. дождь со снегом 10/10 100 м
[]
0.0 -0.1 99 -2 -2 976.6 956.6 1
СЗ 2-2
{2}
5000 м слаб. дождь со снегом 10/10 100 м
[]
-0.1 -0.2 99 -4 -4 976.7 956.6 0.2
СЗ 2-4
{4}
6000 м морось 10/10 100 м
[]
-0.3 -0.6 98 -4 -4 976.8 956.8 0.1
СЗ 2-4
{4}
6000 м слаб. дождь {морось} 10/6 100 м
[]
-0.5 -0.9 97 -4 -4 977.2 957.1 0.1
СЗ 2-3
{5}
6000 м дождь со снегом 10/10 100 м
[]
-0.4 -0.8 97 -4 -4 977.8 957.8
СЗ 2-3
{4}
35 км слаб. морось 10/10 100 м
[]
-0.5 -0.9 97 -4 -4 978.4 958.3
З 1-2
{4}
6000 м слаб. дождь {морось} 10/10 50 м
[]
-0.6 -0.9 98 -3 -3 979.2 959.0 -0.6 +0.1 <0.5
З 2-4
{4}
1700 м слаб. переохл. морось (гололёд) 10/10 50 м
[]
-1.0 -1.2 99 -5 -5 979.8 959.7 0.1
З 1-2
{5}
9000 м слаб. переохл. морось (гололёд) 10/10 300 м
[]
-1.9 -2.7 94 -4 -4 980.6 960.3 0.1
ЮЗ 1-2
{3}
5000 м сильн. дождь {ливн. осадки} 10/10 200 м
[]
-1.7 -2.3 96 -4 -4 980.9 960.6
ЮЗ 2-4
{4}
1800 м переохл. дождь (гололёд) 10/10 100 м
[]
-1.6 -2.2 96 -6 -6 981.3 961.0
ЮЗ 2-3
{4}
2400 м переохл. дождь (гололёд) 10/10 100 м
[]
-1.7 -2.3 96 -6 -6 981.5 961.3 0.2
ЮЗ 2-4
{5}
5000 м сильн. дождь {ливн. осадки} 10/10 100 м
[]
-2.0 -2.8 94 -6 -6 981.8 961.6 0.1
ЮЗ 2-4
{4}
3200 м сильные осадки 10/10 100 м
[]
-2.1 -2.7 96 -6 -6 982.6 962.3 0.1
ЮЗ 2-3
{5}
8000 м слаб. переохл. морось (гололёд) 10/10 200 м
[]
-2.2 -3.0 94 -6 -6 983.1 962.8
ЮЗ 2-4
{4}
10 км сильн. дождь {морось} 10/10 200 м
[]
-2.1 -2.8 95 -6 -6 982.8 962.5
ЮЗ 1-3
{3}
2900 м слаб. переохл. дождь (гололёд) 9/9 100 м
[]
-2.1 -2.6 96 -4 -4 982.9 962.6
Ю 1-2
{3}
3200 м слаб. переохл. дождь (гололёд) 9/9 300 м
[]
-2.1 -2.5 97 -5 -5 982.7 962.4 0.1
Ю 2-3
{3}
2100 м сильн. дождь {морось} 10/10 100 м
[]
-1.9 -2.3 97 -6 -6 982.2 962.0 -2.3 -0.6 0.1
Ю 2-3
{3}
3100 м слаб. дождь со снегом 10/10 50 м
[]
-1.6 -2.0 97 -6 -6 981.6 961.4 0.1
Ю 2-3
{4}
50 км в посл. час осадки 10/10 200 м
[]
-1.6 -2.1 96 -6 -6 980.9 960.7
Ю 2-3
{3}
22 км {ливн. осадки, дождь} 10/6 100 м
[]
-1.9 -2.5 96 -6 -6 980.2 960.0
Ю 2-3
{4}
19 км 9/9 100 м
[]
-1.9 -2.5 96 -6 -6 979.0 958.8
ЮВ 2-3
{4}
3700 м переохл. дождь (гололёд) 10/10 100 м
[]
-1.7 -2.4 95 -6 -6 976.8 956.7
ЮВ 2-4
{5}
2600 м туман {ливн. осадки, дождь} 10/10 100 м
[]
-1.5 -2.1 96 -6 -6 974.5 954.5 0.3
В 2-4
{6}
500 м снег ?/? -1.3 -1.7 97 -5 -5 972.7 952.7 0.9
ЮВ 2-4
{6}
900 м снег ?/? -0.9 -1.2 98 -5 -5 971.0 951.0 3
Ю 2-4
{5}
2700 м сильн. снег {дождь} 9/9 100 м
[]
-0.3 -0.5 99 -4 -4 969.8 950.0 0.9
Ю 2-4
{6}
2500 м слаб. ливневой дождь 10/10 50 м
[]
+0.3 +0.1 99 -4 -4 969.5 949.7 0.2
Ю 3-5
{5}
45 км слаб. дождь н/о +0.6 +0.4 99 -4 -4 969.2 949.3 0.1
Ю 4-6
{6}
6000 м морось 10/10 100 м
[]
+1.0 +0.6 97 -4 -4 968.6 948.8 -2.0 +1.0 0.1 <0.5
Ю 5-11
{11}
6000 м слаб. дождь 10/10 200 м
[]
+1.6 +1.1 96 -4 -4 968.0 948.3 0.8
ЮЗ 5-9
{12}
700 м снег ?/? +0.1 -0.2 98 -6 -6 969.1 949.3 2
ЮЗ 6-9
{12}
1200 м слаб. снег 10/10 100 м
[]
0.0 -0.4 97 -7 -7 969.1 949.2 0.4
ЮЗ 6-10
{12}
2000 м слаб. дождь 10/10 100 м
[]
0.0 -0.2 99 -7 -7 969.5 949.7 0.6
ЮЗ 6-10
{12}
1900 м слаб. дождь со снегом 10/10 100 м
[]
0.0 -0.2 99 -7 -7 970.5 950.7 0.1
ЮЗ 5-9
{12}
3100 м слаб. дождь 10/10 50 м
[]
0.0 -0.2 99 -6 -6 971.9 952.0 0.2
ЮЗ 4-8
{10}
2700 м слаб. дождь со снегом 10/10 100 м
[]
-0.2 -0.4 99 -6 -6 973.3 953.4
ЮЗ 4-9
{9}
2400 м слаб. дождь со снегом 10/10 100 м
[]
-0.3 -0.5 99 -6 -6 975.0 955.0 0.1
З 4-8
{9}
2000 м слаб. снег {дождь} 10/10 100 м
[]
-0.6 -0.9 98 -6 -6 976.9 956.8 0.1
З 3-8
{9}
50 км слаб. переохл. морось (гололёд) 10/10 200 м
[]
-1.5 -2.2 95 -7 -7 979.0 958.9 0.1
З 4-10
{10}
35 км слаб. переохл. морось (гололёд) 10/10 200 м
[]
-2.4 -3.2 94 -9 -9 981.1 960.8
З 4-10
{10}
40 км {ливн. осадки, снег} 10/10 300 м
[]
-3.3 -4.1 94 -10 -10 983.0 962.7 -3.3 +1.9
З 2-4
{8}
50 км 10/10 300 м
[]
-3.2 -3.9 95 -7 -7 984.8 964.4
З 1-4
{7}
9000 м снежные зёрна 10/10 200 м
[]
-3.0 -3.6 96 -5 -5 986.1 965.7
СЗ 3-7
{8}
50 км в посл. час снег {ливн. осадки} 10/10 300 м
[]
-3.2 -4.1 93 -9 -9 987.8 967.3
З 2-6
{7}
50 км в посл. час снег 10/10 300 м
[]
-3.7 -4.6 93 -8 -8 989.4 968.9
З 1-3
{6}
8000 м дымка 10/10 200 м
[]
-3.7 -4.3 96 -6 -6 990.4 969.8
СЗ 2-4
{4}
2400 м сильн. морось {ливн. осадки} 9/9 100 м
[]
-3.2 -3.7 96 -7 -7 991.5 971.0 0.1
СЗ 1-4
{5}
3900 м в посл. час переохл. осадки (гололёд) 10/10 100 м
[]
-3.7 -4.3 96 -6 -6 992.8 972.2 0.1
З 2-4
{4}
1000 м слаб. переохл. морось (гололёд) ?/? -3.6 -4.3 95 -8 -8 994.3 973.7 0.8
З 1-3
{6}
50 км в посл. час ливневой дождь 9/6 300 м
[]
-4.5 -5.4 93 -7 -7 995.3 974.6 0.3
З 1-2
{3}
5000 м слаб. переохл. дождь (гололёд) 10/10 300 м
[]
-4.3 -5.1 94 -7 -7 996.2 975.4
СЗ 2-3
{6}
40 км в посл. час переохл. осадки (гололёд) 9/4 600 м
[]
-5.1 -6.3 91 -9 -9 997.4 976.6
СЗ 1-3
{4}
23 км ливневой дождь 9/9 300 м
[]
-5.0 -6.0 93 -7 -7 999.9 979.0
СЗ 3-5
{5}
50 км в посл. час дождь 9/9 200 м
[]
-5.1 -6.0 93 -11 -11 1001.3 980.4
СЗ 2-3
{5}
50 км {ливн. осадки, дождь} 1/0 1500 м
[]
-6.1 -7.2 92 -11 -11 1002.3 981.3
СЗ 2-4
{4}
35 км ясно -6.8 -7.9 92 -11 -11 1003.3 982.2
СЗ 2-4
{4}
50 км ясно -7.6 -9.0 90 -12 -12 1004.5 983.4
СЗ 1-3
{5}
50 км {ливн. осадки, дождь} ясно -8.8 -10.2 90 -11 -11 1006.0 984.7
СЗ 1-3
{3}
50 км ясно -10.3 -11.6 90 -13 -13 1007.6 986.2
З 1-2
{3}
50 км в посл. час переохл. осадки (гололёд) ясно -11.8 -13.4 88 -14 -14 1009.0 987.4
ЮЗ 1-1
{2}
30 км сильн. морось ясно -14.0 -15.4 89 -16 -16 1010.5 988.7
ЮЗ 1-1
{2}
50 км слаб. переохл. морось (гололёд) ясно -14.9 -16.2 90 -17 -17 1011.9 990.0
Ю 1-1
{1}
50 км слаб. переохл. морось (гололёд) ясно -16.1 -17.7 87 -19 -19 1013.0 990.9
Ю 1-1
{1}
30 км слаб. переохл. морось (гололёд) ясно -17.6 -19.3 87 -20 -20 1014.3 992.1
Ю 1-1
{2}
40 км слаб. переохл. морось (гололёд) 4/0 50 м
[]
-17.4 -18.9 88 -20 -20 1014.6 992.5
Ю 1-2
{2}
40 км сильн. морось {ливн. осадки} 10/10 100 м
[]
-12.9 -14.2 90 -15 -15 1015.2 993.4
Ю 1-1
{2}
16 км слаб. переохл. морось (гололёд) 10/0 50 м
[]
-11.2 -12.3 92 -13 -13 1015.4 993.7
Ю 1-1
{2}
25 км в посл. час переохл. осадки (гололёд) 10/10 200 м
[]
-10.6 -11.8 91 -13 -13 1015.4 993.8
Ю 1-2
{2}
40 км {ливн. осадки, снег} 10/0 200 м
[]
-9.2 -10.2 92 -12 -12 1015.3 993.8
Ю 2-3
{3}
35 км 10/10 200 м
[]
-7.4 -8.3 93 -12 -12 1015.2 993.8
Ю 2-3
{3}
26 км 10/10 100 м
[]
-6.7 -7.5 94 -11 -11 1015.1 993.8
Ю 3-5
{5}
35 км сильн. дождь {туман} 10/0 100 м
[]
-6.7 -7.5 94 -13 -13 1014.9 993.6
Ю 3-4
{5}
45 км в посл. час переохл. осадки (гололёд) 10/0 100 м
[]
-6.8 -7.6 94 -13 -13 1014.4 993.1
Ю 2-3
{4}
45 км 9/1 100 м
[]
-7.0 -7.9 93 -12 -12 1014.2 992.9
Ю 2-3
{3}
50 км {дождь, туман} 9/9
[]
-6.8 -7.7 93 -11 -11 1013.6 992.3 -18.0 -6.6 <0.5
Ю 2-4
{4}
50 км 10/4 1500 м
[]
-6.5 -7.5 93 -11 -11 1013.0 991.7
Ю 3-5
{6}
50 км в посл. час переохл. осадки (гололёд) 9/1 1500 м
[]
-6.0 -6.9 93 -12 -12 1012.2 991.0
Ю 3-6
{7}
50 км в посл. час ливневой дождь 9/1 1500 м
[]
-5.5 -6.4 93 -11 -11 1011.3 990.1
Ю 3-6
{7}
45 км 9/9 200 м
[]
-4.8 -5.7 93 -10 -10 1010.3 989.3
Ю 4-7
{7}
2900 м слаб. переохл. дождь (гололёд) 9/9 200 м
[]
-4.1 -5.0 93 -11 -11 1008.5 987.5
Ю 4-7
{7}
50 км в посл. час ливневой дождь 9/4 1000 м
[]
-3.7 -4.7 93 -10 -10 1007.8 986.8
Ю 4-8
{8}
50 км 9/9 300 м
[]
-3.3 -4.4 92 -10 -10 1006.5 985.7
Ю 6-10
{10}
30 км слаб. переохл. морось (гололёд) 10/9 1000 м
[]
-2.6 -3.9 91 -10 -10 1005.8 985.0
Ю 6-9
{10}
700 м слаб. дождь со снегом 10/10 100 м
[]
-2.5 -3.3 94 -10 -10 1005.4 984.6 0.2
Ю 5-8
{10}
1400 м дождь со снегом 10/10 100 м
[]
-2.3 -3.0 95 -9 -9 1005.2 984.4 0.6
Ю 5-10
{10}
1200 м дождь со снегом 10/10 100 м
[]
-1.9 -2.6 95 -9 -9 1004.7 984.0 0.2
Ю 6-10
{10}
1400 м дождь со снегом 10/10 100 м
[]
-1.1 -1.7 96 -8 -8 1004.9 984.2 0.1
Ю 5-9
{9}
3500 м осадки 10/10 100 м
[]
-0.8 -1.4 96 -7 -7 1005.7 985.0 0.1
Ю 5-7
{10}
2400 м сильн. дождь {ливн. осадки} 10/10 100 м
[]
-0.6 -1.1 96 -7 -7 1005.9 985.3 0.1
Ю 5-8
{8}
11 км в посл. час дождь 10/10 100 м
[]
-0.4 -0.8 97 -7 -7 1006.2 985.6 0.2
Ю 4-7
{9}
3900 м слаб. дождь 10/10 50 м
[]
-0.1 -0.4 98 -6 -6 1006.4 985.7 0.2
Ю 4-6
{8}
3900 м в посл. час снег {ливн. осадки} 10/10 50 м
[]
0.0 -0.3 98 -6 -6 1006.4 985.8 0.1
Ю 4-7
{7}
4100 м дымка 10/10 50 м
[]
0.0 -0.3 98 -6 -6 1006.3 985.7
Ю 4-7
{7}
5000 м дымка 10/10 50 м
[]
0.0 -0.3 98 -6 -6 1006.3 985.7 0.1
Ю 4-8
{8}
45 км 10/10 50 м
[]
+0.2 -0.2 97 -5 -5 1006.1 985.5
Ю 4-6
{7}
3400 м дождь 10/10 100 м
[]
+0.1 -0.3 97 -6 -6 1006.2 985.6 0.1
Ю 4-6
{6}
2000 м дождь со снегом 10/10 50 м
[]
0.0 -0.3 98 -6 -6 1006.1 985.5 0.6
Ю 3-6
{7}
1500 м слаб. снег {дождь} 10/10 50 м
[]
-0.1 -0.3 99 -5 -5 1005.9 985.3 -1.6 +0.2 1 <0.5
Ю 3-6
{6}
1400 м слаб. ледяной дождь 10/10 50 м
[]
-0.2 -0.4 99 -5 -5 1006.0 985.4 0.8
Ю 3-6
{7}
2600 м слаб. дождь со снегом 10/10 100 м
[]
-0.2 -0.5 98 -5 -5 1006.3 985.7 0.4
Ю 4-7
{7}
2400 м сильн. снег {дождь} 10/10 100 м
[]
-0.2 -0.6 97 -6 -6 1006.1 985.5 0.4
Ю 4-6
{7}
1500 м слаб. ледяной дождь 10/10 50 м
[]
-0.4 -0.8 97 -6 -6 1006.1 985.4 0.4
Ю 4-6
{7}
1700 м слаб. снег 10/10 100 м
[]
-0.4 -0.8 97 -6 -6 1005.9 985.2 0.6
Ю 5-8
{8}
12 км слаб. морось {дождь} 10/10 150 м
[]
-0.5 -0.9 97 -7 -7 1005.8 985.2 0.3
Ю 4-6
{7}
14 км слаб. переохл. морось (гололёд) 9/9 120 м
[]
-0.8 -1.1 98 -7 -7 1006.0 985.3
Ю 4-7
{9}
40 км слаб. переохл. морось (гололёд) 10/10 180 м
[]
-1.7 -2.4 95 -8 -8 1006.2 985.4 0.1
Ю 5-8
{10}
45 км {ливн. осадки, дождь} 10/10 270 м
[]
-2.6 -3.4 94 -9 -9 1006.3 985.5
Ю 4-7
{8}
50 км 10/10 300 м
[]
-2.8 -3.6 94 -9 -9 1006.0 985.2
Ю 5-8
{9}
50 км 10/10 570 м
[]
-2.8 -4.0 91 -10 -10 1005.6 984.8
Ю 4-5
{9}
50 км {ливн. осадки, дождь} 9/9 870 м
[]
-2.9 -4.1 91 -9 -9 1005.0 984.2 -3.0 -0.1
Ю 3-5
{7}
50 км 10/10 600 м
[]
-2.8 -4.0 91 -8 -8 1004.8 984.0
Ю 4-6
{7}
50 км 9/9 600 м
[]
-2.4 -3.4 93 -9 -9 1004.5 983.8
Ю 3-5
{6}
11 км сильн. морось {туман} 10/10 300 м
[]
-2.0 -2.6 96 -7 -7 1004.2 983.5
Ю 3-6
{6}
5000 м слаб. дождь со снегом 10/10 210 м
[]
-1.8 -2.3 96 -7 -7 1003.6 982.9
Ю 3 6000 м осадки 10/10 270 м
[]
-1.8 -2.4 96 -7 -7 1003.1 982.4 0.1
Ю 3-6
{6}
18 км слаб. снег 10/10 240 м
[]
-1.8 -2.5 95 -7 -7 1002.6 981.9 0.2
Ю 4-7
{7}
35 км слаб. переохл. морось (гололёд) 10/10 210 м
[]
-1.9 -2.6 95 -8 -8 1002.2 981.5
Местоположение метеостанции Раутаваара Яла-Луоста (Финляндия): широта 63.38 долгота 28.66 высота над уровнем моря 166 м.
В архиве по умолчанию представлена погода в Раутаваара Яла-Луоста за последнюю неделю. Архивные данные за месяц целиком и за предыдущие месяцы, начиная с января 2011 года, Вы можете получить, выбрав интересующий диапазон дат из раскрывающегося списка и нажав кнопку "Найти!".
*Определитесь, кто Вы:
Внимание! Время в таблицах - всемирное. Для получения местного времени необходимо прибавить поправку, которая равна 1 ч.
Смотрите также архив погоды в соседних городах и на ближайших метеорологических станциях:
Партнеры нашего сайта:      
Пояснения к столбцам:
  • Ветер - указаны скорость ветра в м/с - средняя за 10 мин, порывы в срок и между сроками (в фигурных скобках) и направление, откуда дует ветер: С - северный,
  • СВ - северо-восточный, В - восточный, ЮВ - юго-восточный, Ю - южный, ЮЗ - юго-западный, З - западный, СЗ - северо-западный.
  • Видимость - горизонтальная дальность видимости в метрах или километрах. При видимости от 1 до 10 км при отсутствии осадков обычно наблюдается дымка, при ухудшении видимости до 1 км и менее - туман. В сухую погоду видимость может ухудшаться дымом, пылью или мглою.
  • Явления - указаны атмосферные явления, наблюдавшиеся в срок или в последний час перед сроком; фигурными скобками обозначены явления, наблюдавшиеся между сроками (за 1-3 часа до срока); квадратными скобками обозначены град или гололедные отложения с указанием их диаметра в мм.
  • Облачность - указаны через наклонную черту общая и нижняя облачность в баллах и высота нижней границы облаков в метрах; квадратными скобками обозначены формы облаков: Ci - перистые, Cs - перисто-слоистые, Cc - перисто-кучевые, Ac - высококучевые, As - высокослоистые, Sc - слоисто-кучевые, Ns - слоисто-дождевые, Cu - кучевые, Cb - кучево-дождевые. Подробнее классификацию облаков см. в Атласе облаков (PDF).
  • T - Температура воздуха - температура, измеренная на высоте 2 м над землей.
  • Td - Температура точки росы - температура, при понижении до которой содержащийся в воздухе водяной пар достигнет насыщения.
  • f - Относительная влажность воздуха - влажноcть воздуха, измеренная на высоте 2 м над землей.
  • Te - Эффективная температура - температура, которую ощущает одетый по сезону человек в тени. Характеристика душности погоды. При расчете учитывается влияние влажности воздуха и скорости ветра на теплоощущения человека.
  • Tes - Эффективная температура на солнце - температура, которую ощущает человек, с поправкой на солнечный нагрев. Характеристика знойности погоды. Зависит от высоты солнца над горизонтом, облачности и скорости ветра. Ночью, в пасмурную погоду, а также при ветре 12 м/с и более поправка равна нулю.
  • P - Атмосферное давление - приведенное к уровню моря атмосферное давление.
  • Po - Атмосферное давление - измеренное на уровне метеостанции атмосферное давление.
  • Tmin - Минимальная температура - минимум температуры воздуха на высоте 2 м над землей.
  • Tmax - Максимальная температура - максимум температуры воздуха на высоте 2 м над землей.
  • R - Количество осадков - Количество выпавших осадков за период времени, мм. При наведении курсора мыши на число - период времени, за который выпало указанное количество осадков.
  • R24 - Количество осадков - Количество выпавших осадков за 24 часа, мм.
  • S - Снежный покров - Высота снежного покрова, см. При наведении курсора мыши на число - состояние снежного покрова и степень покрытия местности в баллах.